User: anonymous   Login
Location: Marne
(34.0056°N, 117.9064°W)
Time: 12:53:09
(UTC+00:00)
Language:

ASTRO E2 - Orbit

View from above orbital plane
View from above orbital plane
View from above satellite
View from above satellite

Ground track
Ground track

The orbit data is extracted from the following two-line orbital elements,

1 28773U 05025A   20094.82699293 +.00000850 +00000-0 +37097-4 0  9995
2 28773 031.3815 141.8845 0004460 177.4039 182.6631 15.17470114812612
Epoch (UTC): 03 April 2020 19:50:52
Eccentricity: 0.0004460
inclination: 31.3815°
perigee height: 510 km
apogee height: 516 km
right ascension of ascending node: 141.8845°
argument of perigee: 177.4039°
revolutions per day: 15.17470114
mean anomaly at epoch: 182.6631°
orbit number at epoch: 81261

The dashed part of the orbit path shows where the satellite is in the earth's shadow,  

DLR